Weather History for Huntsville, AL

Change the Weather History Date:

Sunday, November 20, 2011

  Actual Average Record
Temperature  
Mean Temperature 63 °F 51 °F  
Max Temperature 68 °F 62 °F 79 °F (1942)
Min Temperature 58 °F 41 °F 10 °F (1914)
Degree Days  
Heating Degree Days 2 14  
Month to date heating degree days 205 218  
Since 1 July heating degree days 411 369  
Cooling Degree Days 0 0  
Month to date cooling degree days 11 7  
Year to date cooling degree days 2076 1947  
Growing Degree Days 14 (Base 50)    
Moisture  
Dew Point 58 °F    
Average Humidity 81    
Maximum Humidity 93    
Minimum Humidity 68    
Precipitation  
Precipitation 0.19 in 0.18 in 1.31 in (1991)
Month to date precipitation 1.30 3.07  
Year to date precipitation 49.56 46.70  
Snow  
Snow 0.00 in - - ()
Month to date snowfall 0.0  
Since 1 July snowfall 0.0  
Since 1 September snowfall 0.0  
Snow Depth 0.00 in    
Sea Level Pressure  
Sea Level Pressure 30.22 in    
Wind  
Wind Speed 6 mph (SSE)    
Max Wind Speed 14 mph    
Max Gust Speed 18 mph    
Visibility 9 miles    
Events Rain    
T = Trace of Precipitation, MM = Missing Value Source: NWS Daily Summary

Daily Weather History Graph

Daily Weather History Graph

Search for Another Location

Airport:

Trip Planner

Search our weather history database for the weather conditions in past years. The results will help you decide how hot, cold, wet, or windy it might be!

Date:

Astronomy

Nov. 20, 2011 Rise Set
Actual Time 6:25 AM CST 4:39 PM CST
Civil Twilight 5:58 AM CST 5:06 PM CST
Nautical Twilight 5:27 AM CST 5:37 PM CST
Astronomical Twilight 4:57 AM CST 6:07 PM CST
Moon 1:05 AM CST (11/20) 1:18 PM CST (11/20)
Length of Visible Light 11h 08m
Length of Day
10h 14m
Waning Crescent, 27% of the Moon is Illuminated
Nov 20
Waning Crescent
Nov 25
New
Dec 2
First Quarter
Dec 10
Full
Dec 17
Last Quarter

Hourly Weather History & Observations

Time (CST) Temp. Dew Point Humidity Pressure Visibility Wind Dir Wind Speed Gust Speed Precip Events Conditions
12:53 AM 61.0 °F 53.1 °F 75% 30.22 in 10.0 mi South 3.5 mph - N/A   Mostly Cloudy
1:53 AM 61.0 °F 53.1 °F 75% 30.23 in 10.0 mi SE 4.6 mph - N/A   Overcast
2:53 AM 59.0 °F 53.1 °F 81% 30.21 in 10.0 mi SE 6.9 mph - N/A   Mostly Cloudy
3:53 AM 60.1 °F 53.1 °F 78% 30.20 in 10.0 mi ESE 5.8 mph - N/A   Mostly Cloudy
4:53 AM 60.1 °F 54.0 °F 80% 30.20 in 10.0 mi SE 6.9 mph - N/A   Overcast
5:07 AM 60.8 °F 53.6 °F 77% 30.21 in 10.0 mi ESE 6.9 mph - N/A   Overcast
5:53 AM 61.0 °F 55.0 °F 81% 30.20 in 10.0 mi SSE 10.4 mph - N/A   Overcast
6:15 AM 62.6 °F 55.4 °F 77% 30.21 in 10.0 mi SE 10.4 mph - N/A   Overcast
6:53 AM 62.1 °F 55.0 °F 78% 30.22 in 10.0 mi SE 6.9 mph - N/A   Overcast
7:44 AM 62.6 °F 55.4 °F 77% 30.25 in 10.0 mi SE 6.9 mph - N/A   Overcast
7:53 AM 62.1 °F 55.9 °F 80% 30.24 in 10.0 mi SE 5.8 mph - N/A   Overcast
8:53 AM 64.0 °F 57.0 °F 78% 30.25 in 10.0 mi SE 5.8 mph - N/A   Overcast
9:53 AM 66.0 °F 57.9 °F 75% 30.26 in 10.0 mi SSE 5.8 mph - N/A   Overcast
10:53 AM 68.0 °F 57.9 °F 70% 30.25 in 10.0 mi SSW 9.2 mph 17.3 mph N/A   Overcast
11:53 AM 66.2 °F 59.0 °F 78% 30.24 in 10.0 mi South 9.2 mph - N/A   Overcast
12:53 PM 66.9 °F 59.0 °F 76% 30.21 in 10.0 mi SSW 12.7 mph - N/A   Overcast
1:53 PM 66.9 °F 60.1 °F 79% 30.20 in 10.0 mi South 9.2 mph - 0.00 in Rain Light Rain
2:24 PM 64.4 °F 60.8 °F 88% 30.20 in 7.0 mi South 8.1 mph - 0.00 in Rain Light Rain
2:36 PM 64.4 °F 60.8 °F 88% 30.21 in 2.0 mi SSW 5.8 mph - 0.01 in Rain Rain
2:50 PM 64.4 °F 62.6 °F 94% 30.21 in 7.0 mi South 4.6 mph - N/A Rain Light Rain
2:53 PM 64.0 °F 62.1 °F 93% 30.20 in 9.0 mi South 3.5 mph - 0.17 in Rain Light Rain
3:11 PM 64.4 °F 60.8 °F 88% 30.21 in 7.0 mi South 5.8 mph - 0.01 in Rain Light Rain
3:53 PM 64.9 °F 61.0 °F 87% 30.20 in 10.0 mi South 8.1 mph - 0.02 in   Overcast
4:53 PM 64.0 °F 61.0 °F 90% 30.21 in 10.0 mi SE 3.5 mph - N/A   Overcast
5:53 PM 64.0 °F 61.0 °F 90% 30.22 in 10.0 mi South 5.8 mph - N/A   Overcast
6:53 PM 64.0 °F 61.0 °F 90% 30.23 in 9.0 mi Calm Calm - 0.00 in   Overcast
7:19 PM 62.6 °F 60.8 °F 94% 30.24 in 9.0 mi South 4.6 mph - N/A   Overcast
7:53 PM 64.4 °F 60.8 °F 88% 30.23 in 9.0 mi South 4.6 mph - N/A   Overcast
8:53 PM 63.0 °F 61.0 °F 93% 30.23 in 9.0 mi Calm Calm - N/A   Overcast
9:53 PM 62.1 °F 60.1 °F 93% 30.22 in 5.0 mi East 3.5 mph - N/A   Mostly Cloudy
10:10 PM 62.6 °F 60.8 °F 94% 30.23 in 8.0 mi East 3.5 mph - N/A   Mostly Cloudy
10:53 PM 63.0 °F 61.0 °F 93% 30.21 in 7.0 mi SE 3.5 mph - N/A   Mostly Cloudy
11:53 PM 62.1 °F 60.1 °F 93% 30.20 in 6.0 mi ESE 4.6 mph - N/A   Mostly Cloudy